Regional Weather Roundup
Issued by NWS

Home | Current Version | Previous Version | Graphics & Text | Print | Product List | Glossary On
Versions: 1 2 3 4 5 6 7 8 9 10 11 12 13 14 15 16 17 18 19 20 21 22 23 24 25 26 27 28 29 30 31 32 33 34 35 36 37 38 39 40 41 42 43 44 45 46 47 48 49 50
000
ASUS43 KFSD 291502
RWRSD

WEATHER ROUNDUP FOR SOUTH DAKOTA
NATIONAL WEATHER SERVICE SIOUX FALLS SD
1000 AM CDT TUE JUL 29 2014

NOTE: "FAIR" INDICATES FEW OR NO CLOUDS BELOW 12,000 FEET WITH NO
SIGNIFICANT WEATHER AND/OR OBSTRUCTIONS TO VISIBILITY.


SDZ001>005-009-010-012>017-291600-
NORTHWEST AND NORTH CENTRAL SOUTH DAKOTA

CITY           SKY/WX    TMP DP  RH WIND       PRES   REMARKS
BUFFALO          N/A     69  53  56 S7        30.20R
FAITH            N/A     71  52  50 S6        30.25S
MOBRIDGE       SUNNY     67  57  70 CALM      30.22S
$$

SDZ012>016-024>037-041>051-057-063-072>074-291600-
SOUTHWEST AND SOUTH CENTRAL SOUTH DAKOTA

CITY           SKY/WX    TMP DP  RH WIND       PRES   REMARKS
RAPID CTY ARPT CLOUDY    64  54  69 SE3       30.26S
PIERRE         MOSUNNY   69  56  62 NE3       30.22S
CUSTER         CLOUDY    58  51  78 NE7       30.34F
ELLSWORTH AFB  CLOUDY    66  54  64 S5        30.26R
PHILIP         CLOUDY    66  52  60 CALM      30.24S
PINE RIDGE     CLOUDY    65  57  75 CALM      30.27F
WINNER         FAIR      70  56  61 SW5       30.24S
$$

SDZ004>011-016>023-039-040-291600-
NORTHEAST SOUTH DAKOTA

CITY           SKY/WX    TMP DP  RH WIND       PRES   REMARKS
ABERDEEN       SUNNY     67  55  65 W5        30.23S
WATERTOWN      SUNNY     66  54  65 NW7       30.23S
SISSETON         N/A     70  57  63 MISG      30.20S
$$

SDZ017-020-022-023-036>040-048>070-291600-
SOUTHEAST SOUTH DAKOTA

CITY           SKY/WX    TMP DP  RH WIND       PRES   REMARKS
SIOUX FALLS    MOSUNNY   68  55  63 NW5       30.23S
HURON          MOSUNNY   68  55  63 W3        30.23S
CHAMBERLAIN    SUNNY     68  56  64 CALM      30.24S
MITCHELL       PTSUNNY   67  56  67 CALM      30.24S
YANKTON          N/A    N/A N/A N/A W3        30.23S
$$

ABBREVIATIONS USED IN REMARKS
   TC - TEMPERATURE IN CELSIUS
  WCI - WIND CHILL INDEX
   HX - HEAT INDEX
  VSB - VISIBILITY




USA.gov is the U.S. government's official web portal to all federal, state and local government web resources and services.